Погода в Никоя

Коста-Рика     10°08′38″N   85°27′19″W
темп.,
°C
ветер,
м/с
пор.,
м/с
влажн.,
%
обл.,
%
осадки,
мм/ч
давл.,
гПа
погр.,
м
2 июля, сб
сб200:00+22ююз1198100 6.6 100967
03:00+22ююз119398 0.9 100816
06:00+22ююв2294100 2.2 100859
09:00+24юв2390100 0.3 1010237
12:00+27юв2482100 4.5 1009574
15:00+27ююз1280100 6.7 1008592
18:00+24ссз0191100 13.1 100927
21:00+23зсз0096100 1.4 101112
3 июля, вс
вс300:00+22ююв1196100 1.4 101111
03:00+23в119599 0.0 101011
06:00+23сз00959 0.0 101121
09:00+27всв118136 0.7 1012495
12:00+28с117672 4.1 1011721
15:00+25сз2391100 13.1 1009130
18:00+23вюв1398100 68.0 1010149
21:00+22юв1298100 13.8 101371
4 июля, пн
пн400:00+23с0098100 15.7 101226
03:00+23сз0196100 0.1 101112
06:00+23в119579 0.1 101122
09:00+26св2484100 0.0 1013609
12:00+28св357789 0.5 1011954
15:00+28ссв348088 3.9 1009615
18:00+24юв1192100 8.8 101020
21:00+24в119299 0.1 101211
5 июля, вт
вт500:00+23вюв1194100 0.1 101211
03:00+23юв1196100 0.0 101013
06:00+23юв119699 1.1 101124
09:00+26вюв128567 2.8 1012325
12:00+28с1176100 7.0 1010739
15:00+26зсз2286100 9.9 1009317
18:00+24зюз2293100 16.6 100950
21:00+23юв2299100 19.4 101185
6 июля, ср
ср600:00+22всв2499100 39.1 1011200
03:00+22в1299100 5.0 1010149
06:00+22вюв1299100 7.4 1010103
09:00+23в2296100 2.7 1012220
12:00+25в1290100 3.2 1011460
15:00+24вюв1193100 2.0 1009100
18:00+23вюв1195100 3.8 101014
21:00+23юз1195100 1.2 101211